Location: Bessat
(45.8735°N, 1.9924°E)
Time: 23:06:58
(UTC+00:00)

Cosmos 1703 Rocket - Pass Details

Date: 11 May 2021
Orbit: 605 x 633 km, 82.5° (Epoch: 24 June)

Event Time Altitude Azimuth Distance (km) Brightness Sun altitude
Exits shadow 23:48:52 59° 311° (NW) 715 3.9 -26.0°
Drops below altitude 10° 23:52:50 10° 3° (N) 1,998 7.2 -26.0°
Sets 23:55:07 0° 7° (N) 2,914 8.4 -26.0°
